SCP
0 0 0 0 0 0 0 0 0 0 0 0 0 0 0 0 0 0 0 0 0 0 0 0 0 0 0 0 0 0 0 0 0 0 0 0 0 0 0 0 0 0 0 0 0 0 -0 0 0 0 0 0 0 0
0 0 0 0 0 0 0 0 0 0 0 0 0 0 0 0 0 0 0 0 0 0 0 0 0 0 0 0 0 0 0 0 0 0 0 0 0 0 0 0 0 0 0 0 0 0 0 0 0 0 0 0 -0 -0
0 0 0 0 0 0 0 0 0 0 0 0 0 0 0 0 0 0 0 0 0 0 0 0 -0 0 0 0 0 0 0 0 0 0 0 0 0 0 0 0 0 0 0 0 0 0 0 0 -0 0 0 0 0 -0
0 0 0 0 0 0 0 0 0 0 0 0 0 0 0 0 0 0 0 0 0 0 0 0 0 0 0 0 0 0 0 0 0 0 0 0 0 0 0 0 0 0 0 0 0 0 0 0 0 -0 -0 -0 -0 -0
0 0 0 0 0 0 0 0 0 0 0 0 0 0 0 0 0 0 0 0 0 0 0 0 0 0 0 0 0 0 0 0 0 0 0 0 0 0 0 0 0 0 0 0 0 0 0 0 -0 -0 -0 -0 -0 -0
0 0 0 0 0 0 0 0 0 0 0 0 0 0 0 0 0 0 0 0 0 0 0 0 0 0 0 0 0 0 0 0 0 0 0 0 0 0 0 0 0 0 0 0 0 0 0 0 -0 -0 -0 0 -0 -0
0 0 0 0 0 0 0 0 0 0 0 0 0 0 0 0 0 0 0 0 0 0 0 0 0 0 0 0 0 0 0 0 0 0 0 0 0 0 0 0 0 0 0 0 0 0 0 0 -0 -0 -0 -0 -0 -0
0 0 0 0 0 0 0 0 0 0 0 0 0 0 0 0 0 0 0 0 0 0 0 0 0 0 0 -0 -0 0 0 0 0 0 0 0 0 0 0 0 0 0 0 0 0 0 0 -0 -0 0 -0 0 -0 0
0 0 0 0 0 0 0 0 0 0 0 0 0 0 0 0 0 0 0 0 0 0 0 0 0 0 0 0 -0 -0 0 0 0 0 0 0 0 0 0 0 0 0 0 0 0 0 0 -0 -0 0 0 -0 -0 0
0 0 0 0 0 0 0 0 0 0 0 0 0 0 0 0 0 0 0 0 0 0 0 0 0 0 0 0 -0 -0 0 0 0 0 0 0 0 0 0 0 0 0 0 0 0 0 0 -0 0 0 0 -0 -0 -0
0 0 0 0 0 0 0 0 0 0 0 0 0 0 0 0 0 0 0 0 0 0 0 0 0 0 0 -0 -0 0 0 0 -0 0 0 0 0 0 0 0 0 0 0 0 0 0 0 -0 0 0 -0 -0 -0 0
0 0 0 0 0 0 0 0 0 0 0 0 0 0 0 0 0 0 0 0 0 0 0 0 0 0 -0 0 -0 -0 -0 0 0 0 0 0 0 0 -0 -0 -0 0 -0 -0 -0 -0 0 -0 -0 -0 -0 -0 -0 0
0 0 0 0 0 0 0 0 0 0 0 0 0 0 0 0 0 0 0 0 0 0 0 0 -0 -0 -0 -0 -0 -0 -0 -0 0 0 0 0 0 -0 -0 -0 -0 -0 -0 -0 -0 -0 -0 -0 -0 -0 -0 -0 -0 -0
0 0 0 0 0 0 0 0 0 0 0 0 0 0 0 0 0 0 0 0 0 -0 0 -0 -0 -0 -0 -0 -0 -0 -0 0 -0 0 0 0 -0 -0 -0 -0 -0 -0 -0 -0 -0 0 0 0 -0 -0 -0 -0 -0 -0
0 0 0 -0 -0 0 0 0 0 0 0 0 0 0 0 0 0 0 0 0 0 -0 0 0 0 -0 -0 -0 -0 -0 -0 -0 0 0 0 -0 -0 -0 -0 -0 -0 -0 -0 0 -0 0 0 0 0 -0 -0 -0 -0 0
-0 0 0 0 0 0 0 0 0 0 0 0 0 0 0 0 0 0 0 -0 -0 -0 -0 -0 -0 -0 -0 0 0 0 0 0 -0 0 -0 0 -0 -0 -0 -0 -0 -0 -0 0 -0 -0 0 0 0 0 -0 -0 -0 0
0 0 0 0 0 0 0 0 0 0 0 0 0 0 0 0 0 0 -0 -0 -0 -0 -0 -0 -0 -0 -0 -0 0 -0 -0 0 0 -0 0 -0 -0 -0 -0 -0 -0 -0 -0 -0 -0 -0 0 0 0 0 -0 -0 -0 0
0 0 0 0 0 0 0 0 0 0 0 0 0 0 0 0 0 0 0 0 -0 -0 -0 -0 -0 -0 -0 -0 -0 -0 -0 -0 0 0 0 -0 -0 0 0 0 0 0 0 -0 -0 -0 0 0 0 0 0 0 0 -0
0 0 0 0 0 0 0 0 0 0 0 0 0 0 0 0 0 0 0 0 0 0 0 -0 -0 0 -0 -0 -0 -0 -0 -0 0 0 0 -0 -0 -0 0 0 -0 -0 -0 -0 -0 -0 0 0 0 0 0 0 0 0
-0 -0 -0 -0 -0 0 0 0 0 0 0 0 0 0 0 0 0 0 0 0 0 0 -0 -0 0 0 -0 -0 0 -0 -0 -0 0 0 0 -0 -0 -0 0 -0 -0 0 -0 -0 -0 -0 0 0 0 0 0 0 0 -0
0 0 -0 0 0 0 0 0 0 0 0 0 0 0 0 0 0 0 0 0 0 0 0 -0 -0 -0 -0 -0 0 0 0 0 -0 0 -0 -0 -0 -0 0 -0 0 0 -0 -0 -0 0 -0 0 -0 -0 0 0 -0 -0
0 0 0 0 0 0 0 0 0 0 0 0 0 0 0 -0 0 0 0 0 0 0 0 0 0 0 0 0 0 0 0 -0 0 -0 -0 -0 0 -0 -0 -0 0 0 -0 -0 -0 0 -0 -0 -0 0 0 0 0 -0
0 0 0 0 0 0 0 0 0 0 0 0 0 -0 -0 0 0 0 -0 -0 -0 0 0 0 0 0 0 0 0 0 0 0 0 0 -0 -0 -0 -0 0 -0 -0 -0 -0 0 0 0 -0 0 0 0 0 0 -0 -0
-0 -0 -0 -0 0 0 0 0 0 0 0 0 0 0 0 0 0 -0 -0 0 0 0 0 0 0 0 0 0 0 0 0 0 0 0 0 0 0 0 0 0 0 0 -0 -0 0 0 0 0 0 0 0 0 -0 -0
-0 -0 -0 0 0 0 0 0 0 0 0 0 0 0 0 0 0 0 0 0 0 0 0 0 0 0 0 0 0 0 0 0 0 0 0 0 0 0 0 0 0 0 -0 -0 -0 0 0 0 -0 -0 -0 0 0 -0
0 -0 0 0 0 0 0 0 0 0 0 0 0 0 0 0 0 0 0 0 0 0 0 0 0 0 0 0 0 0 0 0 0 0 0 0 0 0 0 -0 0 0 0 -0 -0 -0 -0 -0 -0 -0 -0 0 0 -0
0 0 0 0 0 0 0 0 0 0 0 0 0 0 0 0 0 0 0 0 0 0 0 0 0 0 0 0 0 0 0 0 0 0 0 0 0 0 0 -0 -0 0 -0 -0 -0 -0 -0 -0 -0 -0 -0 0 0 0
0 0 0 0 0 0 0 0 0 0 0 0 0 -0 -0 -0 -0 -0 -0 -0 -0 -0 0 0 0 0 0 0 0 0 0 0 0 0 0 0 0 0 0 0 0 -0 -0 -0 0 0 -0 -0 -0 -0 -0 -0 -0 -0
0 0 0 0 0 0 0 0 0 0 -0 -0 -0 -0 -0 -0 -0 0 -0 0 0 0 0 0 0 0 0 0 0 0 0 0 0 0 0 0 0 0 0 0 0 0 0 0 0 0 -0 -0 -0 0 -0 -0 0 0
0 0 0 0 0 0 0 0 0 0 0 0 0 0 0 0 0 0 0 0 0 0 0 0 0 0 0 0 0 0 0 0 0 0 0 0 0 0 0 0 0 0 -0 0 0 0 0 0 0 0 0 0 0 0
0 0 0 0 0 0 0 0 0 0 0 0 0 0 0 0 0 0 0 0 0 0 0 0 0 0 0 0 0 0 0 0 0 0 0 0 0 0 0 0 0 -0 -0 0 0 0 0 0 0 0 0 0 0 0
0 0 0 0 0 0 0 0 0 0 0 0 0 0 0 0 0 0 0 0 0 0 0 0 0 0 0 0 0 0 0 0 0 0 0 0 0 0 0 0 0 0 0 0 0 0 0 0 0 0 0 0 0 0
0 0 0 0 0 0 0 0 0 0 0 0 0 0 0 0 0 0 0 0 0 0 0 0 0 0 0 0 0 0 0 0 0 -0 -0 -0 -0 -0 -0 0 0 0 0 0 0 0 0 0 0 0 0 0 0 0
Wind_Speed_500mb
49 49 49 48 47 47 48 47 46 45 43 42 42 40 38 36 31 28 42 36 41 38 51 58 79 56 45 27 14 28 26 7 8 4 2 5 3 6 5 8 7 6 1 5 4 7 13 2 3 1 18 44 46 53
47 45 45 45 44 44 44 44 43 43 41 38 38 37 34 35 32 30 35 33 43 49 52 64 87 95 83 79 67 29 22 9 8 0 4 4 5 4 5 7 4 6 9 5 10 12 11 13 24 46 35 43 58 63
43 43 41 40 41 40 39 39 39 39 39 39 37 34 32 32 31 32 36 39 51 45 54 49 48 44 53 65 46 27 30 32 22 29 11 5 10 7 5 10 7 8 8 8 5 8 15 33 50 31 34 38 67 65
39 39 38 36 36 37 38 38 39 39 39 37 35 31 30 34 34 34 36 36 40 31 22 32 40 61 67 56 50 56 77 37 37 42 19 7 6 16 7 10 10 16 8 9 13 17 24 23 26 42 44 55 64 66
37 36 35 34 34 36 37 38 39 40 40 38 36 31 33 36 34 37 41 39 42 38 18 53 78 78 16 31 62 74 76 70 50 15 7 7 9 5 9 0 11 16 14 9 17 13 12 24 46 52 46 62 62 65
35 34 35 35 37 39 40 41 42 41 41 41 40 38 36 36 33 35 15 4 4 18 18 9 34 89 45 37 23 50 70 59 37 20 11 18 38 12 7 7 15 30 32 42 23 19 31 39 41 36 55 56 54 57
33 35 37 38 39 41 41 41 43 42 43 42 41 37 36 31 28 30 16 11 11 29 13 15 16 19 56 30 13 21 36 33 28 15 14 26 14 17 6 20 26 34 46 43 27 22 14 18 33 47 44 43 43 45
35 37 39 40 40 39 40 41 43 43 43 43 42 37 38 39 41 48 36 32 35 40 15 9 12 23 22 21 16 8 18 30 25 14 10 9 12 21 12 26 42 37 17 14 13 12 12 27 36 37 37 37 41 44
39 40 41 39 38 38 39 40 44 44 43 40 37 36 39 10 8 11 22 27 28 25 9 9 7 9 25 18 19 16 16 7 18 8 8 13 7 10 15 22 24 21 11 7 12 11 23 24 30 35 36 36 38 46
39 42 38 36 37 38 39 41 44 41 38 32 29 8 8 5 19 37 10 6 11 12 14 9 10 10 27 18 13 14 10 6 5 10 18 11 11 41 31 25 18 17 6 9 5 12 23 23 30 32 33 31 31 35
39 37 38 37 37 37 36 40 38 38 22 13 8 8 21 26 36 7 7 7 8 7 9 11 17 12 18 9 8 13 7 5 5 7 11 7 7 7 26 29 20 11 7 10 11 13 16 18 22 27 29 28 29 33
38 37 37 37 35 34 36 38 34 26 18 13 25 37 26 8 9 6 6 6 8 6 10 8 16 26 16 19 9 13 8 4 11 12 5 5 4 27 36 30 22 15 13 12 12 15 18 19 19 19 22 24 27 29
39 40 39 37 34 34 37 33 29 24 20 17 9 10 8 10 11 10 9 6 5 7 8 17 13 12 12 18 14 8 9 9 2 5 6 3 13 33 36 30 23 14 19 15 14 18 20 22 23 23 22 22 23 26
37 35 34 33 35 36 32 20 21 10 7 8 8 9 9 9 9 9 4 3 10 28 42 30 15 10 10 6 7 9 9 2 5 4 7 6 29 41 35 25 21 21 18 19 18 22 26 26 27 27 25 24 23 28
34 37 36 35 31 30 23 21 19 16 9 10 9 10 11 22 25 30 32 22 17 42 52 38 23 7 4 9 7 7 6 6 7 12 12 6 42 44 36 28 30 30 28 26 24 23 26 26 28 30 30 29 28 29
36 38 42 34 25 20 18 16 21 23 9 11 15 10 18 21 24 12 15 33 39 41 48 25 8 4 6 5 6 12 10 9 7 12 54 25 41 39 33 34 32 28 25 24 23 23 23 26 29 32 33 34 34 32
34 46 38 24 19 21 21 17 16 16 14 10 13 27 39 35 33 46 38 31 45 35 6 9 10 5 6 4 4 4 5 6 32 60 16 36 40 33 37 38 31 24 21 18 17 20 22 21 23 24 31 35 35 36
44 37 28 25 21 24 29 32 12 15 17 23 13 38 40 41 43 50 55 60 48 28 18 9 13 4 7 4 2 5 13 25 49 60 19 32 29 35 39 32 25 20 19 17 13 18 21 16 19 25 25 25 25 29
36 30 27 25 27 21 13 21 25 10 23 18 32 51 51 51 59 63 64 60 54 48 26 17 10 7 7 10 8 8 9 17 38 25 28 28 33 38 31 22 25 23 21 15 14 16 19 19 18 18 19 19 22 21
31 31 29 30 30 15 14 12 15 13 11 19 38 52 38 45 59 54 50 49 48 30 15 10 10 27 31 45 47 35 20 15 20 1 18 31 35 35 29 29 26 24 22 18 16 14 22 27 30 29 29 28 24 19
30 30 28 30 32 32 12 12 16 13 13 14 31 38 23 34 42 44 51 47 25 15 11 38 48 51 48 49 46 39 33 25 32 4 5 34 39 35 30 31 26 22 17 18 21 22 24 28 30 31 31 33 32 30
27 22 16 27 20 15 19 20 13 10 13 22 25 31 20 24 46 57 61 38 25 46 52 52 52 51 51 48 43 42 37 20 25 19 14 25 46 47 42 40 32 24 20 20 19 21 26 26 29 32 33 36 37 37
28 26 19 18 19 14 13 18 16 15 9 10 17 10 11 17 20 26 13 20 26 45 57 60 59 54 52 43 35 39 36 29 35 27 27 32 47 49 44 37 27 26 26 27 21 18 24 25 25 27 29 29 32 35
30 14 8 10 20 9 9 13 15 13 13 8 7 9 9 13 13 11 8 16 45 41 44 50 47 49 44 35 36 41 35 29 31 38 36 44 45 58 48 37 33 27 22 24 25 21 21 22 21 22 22 22 24 24
6 11 9 14 14 13 12 9 12 12 11 14 10 9 7 9 6 8 7 10 21 34 30 35 44 47 49 40 34 34 31 27 28 33 40 49 54 55 59 47 39 33 32 32 31 30 24 19 17 16 14 12 12 17
8 16 17 13 8 11 10 7 10 18 12 9 9 11 12 7 8 8 5 5 2 9 8 18 23 23 30 31 31 36 38 31 36 33 34 38 53 65 61 55 54 54 49 40 37 36 32 24 20 17 15 11 7 5
9 12 22 24 22 19 10 20 25 10 10 12 7 6 6 7 7 2 5 5 2 3 6 8 9 16 25 27 26 27 31 42 42 37 32 33 39 56 54 63 58 52 42 50 46 39 34 28 23 21 18 17 10 4
16 12 10 14 19 22 8 7 8 7 4 7 10 4 3 1 4 9 11 24 26 21 19 20 22 21 19 21 22 31 27 29 37 33 30 29 28 32 42 55 52 37 41 48 43 36 40 31 25 24 23 20 16 11
13 15 12 20 17 13 15 7 6 8 10 9 5 5 5 8 27 48 38 24 25 20 20 24 28 25 22 26 28 28 34 39 37 41 45 38 33 36 39 42 44 45 33 39 43 35 35 34 28 25 22 21 16 11
12 10 8 8 6 5 7 12 15 19 23 25 13 10 12 23 7 19 9 6 11 21 25 30 25 31 39 39 38 28 20 24 30 36 41 45 38 32 32 33 37 51 48 27 24 38 51 50 42 38 35 37 37 31
15 10 9 13 10 28 38 33 32 32 32 23 21 23 13 5 10 43 32 31 34 31 35 42 48 41 43 40 32 28 23 24 31 35 30 28 30 29 32 34 37 42 40 30 31 34 44 47 47 49 43 42 42 37
10 14 8 7 12 26 24 4 5 7 12 16 17 23 25 26 28 36 36 27 35 43 48 47 45 42 34 29 23 20 25 28 27 25 16 19 30 30 26 25 26 27 28 29 28 36 44 48 45 47 46 40 39 43
11 14 10 10 9 14 19 15 10 7 9 19 20 27 26 13 8 31 38 44 53 52 50 49 49 45 39 35 34 33 30 32 32 29 23 21 22 26 28 30 28 30 31 32 32 30 30 30 32 33 32 25 30 36
Wind_Direction_500mb
290 292 296 299 301 303 304 306 308 310 312 314 315 320 323 325 323 301 284 282 272 273 275 270 272 272 272 257 265 307 327 264 315 0 218 276 215 274 310 253 251 269 200 267 255 271 277 149 332 323 288 298 297 304
289 291 295 298 299 302 305 307 309 310 311 309 307 316 321 317 320 304 293 290 289 275 268 279 275 276 269 267 268 259 243 270 280 163 241 258 283 306 214 271 263 269 203 254 204 234 258 240 276 299 279 296 304 306
289 292 294 296 300 302 304 307 309 311 311 309 306 308 310 311 312 308 292 288 294 287 289 271 267 309 283 272 263 237 246 221 225 237 214 219 246 150 237 243 244 280 197 233 345 257 249 287 303 303 295 295 313 307
287 290 293 296 298 301 305 306 307 309 310 309 303 306 308 306 304 301 302 296 287 283 275 289 288 283 286 274 246 256 241 211 269 269 232 193 213 198 229 240 238 259 163 223 256 290 293 280 285 317 319 326 318 319
286 289 291 294 298 301 304 306 306 306 306 306 301 295 300 308 307 301 299 286 275 258 287 294 294 305 325 305 267 244 231 247 245 237 208 215 220 240 251 210 261 189 205 181 261 267 246 293 315 320 330 331 322 323
283 286 288 292 297 299 301 302 303 304 303 303 298 294 298 305 306 312 308 263 304 266 277 294 295 296 319 334 289 264 254 230 202 207 216 237 242 220 273 256 252 238 242 253 262 300 304 309 313 321 332 331 329 331
281 285 289 294 296 299 302 302 301 301 302 301 300 295 296 299 294 277 250 253 293 320 269 291 286 284 319 326 302 261 223 206 198 214 231 236 229 202 248 259 258 278 285 282 261 295 314 321 321 331 336 337 336 335
283 287 291 294 297 298 299 300 302 304 302 300 301 295 295 291 279 276 287 275 268 265 247 265 277 313 339 324 315 220 200 203 207 221 223 182 190 203 244 245 258 273 248 230 263 299 308 318 320 337 346 351 349 357
285 287 290 291 295 297 298 302 303 304 301 304 301 299 301 300 261 281 286 293 278 222 243 238 277 292 327 332 315 326 221 191 198 210 205 163 197 221 233 240 233 213 218 266 282 313 332 347 343 348 353 1 359 360
283 287 290 293 295 298 301 306 308 305 307 310 308 333 275 242 299 315 296 228 222 224 233 258 261 272 305 317 301 300 203 261 222 217 158 199 243 243 253 260 233 178 183 304 305 351 357 355 351 351 354 358 1 3
284 286 289 288 290 295 302 306 310 309 320 341 306 266 279 294 298 249 247 222 206 241 234 253 248 248 257 209 228 254 275 197 278 231 181 211 258 181 149 140 137 121 76 59 50 25 9 356 348 351 0 5 11 9
282 283 285 286 284 291 297 301 305 304 296 289 300 302 294 273 237 252 227 201 212 247 214 213 241 241 249 222 234 267 238 221 243 147 203 243 275 154 151 140 129 113 99 90 60 41 26 16 14 9 10 18 22 19
278 278 278 278 282 286 292 297 299 291 294 301 246 248 229 227 232 224 211 206 225 209 202 247 261 251 222 232 243 257 240 237 90 218 215 236 149 158 153 144 132 123 113 106 79 53 47 38 34 32 31 35 37 45
276 270 271 273 280 285 290 288 292 279 247 240 246 248 223 207 239 207 248 301 309 329 324 305 247 240 238 248 239 244 251 332 250 269 242 169 159 163 158 150 143 127 116 108 92 70 59 50 43 43 45 52 59 67
271 271 273 275 280 291 284 270 247 225 235 247 237 236 235 252 280 303 308 298 332 335 333 319 290 231 252 262 254 275 288 306 345 2 347 152 169 163 159 153 142 126 113 99 80 75 72 60 57 57 55 61 70 77
271 275 270 282 284 265 262 247 219 213 236 238 234 265 275 295 288 292 307 319 333 331 318 286 273 246 260 256 316 15 4 5 323 306 305 188 176 167 159 152 141 126 115 100 81 65 71 79 69 67 69 68 74 81
265 260 271 282 270 242 246 236 208 207 233 229 239 239 255 272 272 281 296 301 318 326 293 302 316 324 269 328 316 19 275 272 290 315 272 188 182 168 158 151 144 134 125 112 91 67 56 83 88 83 77 71 72 77
250 265 270 270 257 254 241 226 227 227 232 230 234 246 248 258 271 281 284 289 298 300 298 259 270 266 253 307 299 224 236 310 334 322 202 190 174 157 154 150 154 161 142 132 101 61 47 60 94 97 90 83 81 76
263 264 259 249 245 257 221 208 214 253 232 242 245 256 259 267 273 276 280 286 286 284 277 272 251 214 233 214 250 291 212 325 343 354 178 174 158 155 153 153 152 146 136 140 123 82 72 77 80 96 101 101 99 95
257 252 255 256 249 253 208 230 207 232 232 233 245 256 253 258 273 275 275 276 278 281 229 218 216 238 255 285 300 307 293 350 335 303 149 165 160 159 157 162 158 144 130 137 139 105 94 95 92 88 86 80 74 84
264 265 248 240 245 245 248 214 216 237 252 244 258 261 259 273 267 267 268 278 240 217 241 248 259 268 280 281 289 290 297 294 349 262 146 184 179 178 172 174 172 160 143 135 128 121 111 102 99 91 88 84 77 77
244 251 246 221 223 232 239 228 223 216 231 239 254 253 257 265 271 267 268 249 238 236 236 250 259 273 276 272 267 273 273 262 281 298 241 202 198 192 185 182 179 179 167 149 134 123 118 109 99 93 93 90 83 81
240 239 239 212 205 224 252 220 206 218 219 240 241 225 241 235 243 268 230 227 230 240 244 246 257 271 268 271 276 257 259 260 219 241 197 192 199 190 188 191 185 176 168 165 158 144 134 117 109 95 93 98 90 85
228 204 220 220 208 254 226 218 220 234 227 222 230 230 249 228 244 225 243 229 246 244 236 243 256 268 260 264 249 243 248 262 221 214 217 200 199 198 198 198 197 186 165 167 179 174 159 138 127 120 104 98 97 90
209 226 208 236 225 220 223 227 213 212 234 209 215 236 255 224 233 221 222 254 248 251 260 261 253 251 253 252 236 220 226 244 217 218 210 205 205 203 202 201 206 204 198 198 198 199 187 168 152 140 124 116 106 99
219 212 204 216 227 213 220 245 222 213 213 214 247 234 229 204 221 229 224 350 6 211 246 246 245 255 228 225 224 217 209 219 217 216 217 217 209 207 206 205 208 209 212 212 211 207 204 193 176 170 167 173 186 147
248 253 221 227 240 250 257 262 247 237 206 216 210 218 220 222 231 261 80 62 342 270 247 234 210 219 214 211 207 207 222 209 211 210 216 216 206 206 214 207 210 208 208 210 214 218 208 201 190 187 185 203 206 214
241 274 251 265 261 231 243 243 243 224 263 328 326 283 275 267 262 348 326 310 297 284 257 228 213 203 205 197 181 190 198 197 205 212 216 209 195 203 207 208 205 194 205 212 207 215 214 205 190 186 192 203 208 206
247 252 257 276 280 244 216 253 313 4 4 3 334 307 325 281 281 285 275 262 269 255 219 194 187 193 205 209 204 189 184 182 181 181 185 187 191 192 196 203 207 204 187 190 208 216 218 216 210 205 199 198 210 219
253 236 252 273 262 266 264 257 271 304 288 285 248 264 273 293 333 353 31 159 154 152 167 170 167 154 136 134 132 137 162 192 201 203 203 194 186 184 188 194 187 194 192 208 214 217 219 219 218 217 216 220 219 217
267 221 235 228 254 269 292 307 288 273 270 294 303 263 280 333 312 49 80 97 109 108 122 132 138 137 136 132 126 117 112 137 166 166 157 164 173 174 170 170 181 196 210 211 210 227 219 217 221 222 218 219 220 224
236 221 222 273 285 308 331 331 330 38 26 343 359 26 30 17 30 46 68 97 114 109 109 113 121 124 126 125 120 106 118 131 145 151 159 160 165 172 177 184 189 206 215 216 218 216 213 219 224 218 215 218 227 226
272 282 278 286 305 332 347 358 36 109 46 8 3 26 31 34 23 35 66 99 104 103 103 109 112 114 116 112 111 120 120 121 126 124 129 147 161 177 186 187 178 175 176 173 169 171 179 190 202 212 215 223 239 228
Wind_Speed_850mb
49 49 49 48 47 47 48 47 46 45 43 42 42 40 38 36 31 28 42 36 41 38 51 58 79 56 45 27 14 28 26 7 8 4 2 5 3 6 5 8 7 6 1 5 4 7 13 2 3 1 18 44 46 53
47 45 45 45 44 44 44 44 43 43 41 38 38 37 34 35 32 30 35 33 43 49 52 64 87 95 83 79 67 29 22 9 8 0 4 4 5 4 5 7 4 6 9 5 10 12 11 13 24 46 35 43 58 63
43 43 41 40 41 40 39 39 39 39 39 39 37 34 32 32 31 32 36 39 51 45 54 49 48 44 53 65 46 27 30 32 22 29 11 5 10 7 5 10 7 8 8 8 5 8 15 33 50 31 34 38 67 65
39 39 38 36 36 37 38 38 39 39 39 37 35 31 30 34 34 34 36 36 40 31 22 32 40 61 67 56 50 56 77 37 37 42 19 7 6 16 7 10 10 16 8 9 13 17 24 23 26 42 44 55 64 66
37 36 35 34 34 36 37 38 39 40 40 38 36 31 33 36 34 37 41 39 42 38 18 53 78 78 16 31 62 74 76 70 50 15 7 7 9 5 9 0 11 16 14 9 17 13 12 24 46 52 46 62 62 65
35 34 35 35 37 39 40 41 42 41 41 41 40 38 36 36 33 35 15 4 4 18 18 9 34 89 45 37 23 50 70 59 37 20 11 18 38 12 7 7 15 30 32 42 23 19 31 39 41 36 55 56 54 57
33 35 37 38 39 41 41 41 43 42 43 42 41 37 36 31 28 30 16 11 11 29 13 15 16 19 56 30 13 21 36 33 28 15 14 26 14 17 6 20 26 34 46 43 27 22 14 18 33 47 44 43 43 45
35 37 39 40 40 39 40 41 43 43 43 43 42 37 38 39 41 48 36 32 35 40 15 9 12 23 22 21 16 8 18 30 25 14 10 9 12 21 12 26 42 37 17 14 13 12 12 27 36 37 37 37 41 44
39 40 41 39 38 38 39 40 44 44 43 40 37 36 39 10 8 11 22 27 28 25 9 9 7 9 25 18 19 16 16 7 18 8 8 13 7 10 15 22 24 21 11 7 12 11 23 24 30 35 36 36 38 46
39 42 38 36 37 38 39 41 44 41 38 32 29 8 8 5 19 37 10 6 11 12 14 9 10 10 27 18 13 14 10 6 5 10 18 11 11 41 31 25 18 17 6 9 5 12 23 23 30 32 33 31 31 35
39 37 38 37 37 37 36 40 38 38 22 13 8 8 21 26 36 7 7 7 8 7 9 11 17 12 18 9 8 13 7 5 5 7 11 7 7 7 26 29 20 11 7 10 11 13 16 18 22 27 29 28 29 33
38 37 37 37 35 34 36 38 34 26 18 13 25 37 26 8 9 6 6 6 8 6 10 8 16 26 16 19 9 13 8 4 11 12 5 5 4 27 36 30 22 15 13 12 12 15 18 19 19 19 22 24 27 29
39 40 39 37 34 34 37 33 29 24 20 17 9 10 8 10 11 10 9 6 5 7 8 17 13 12 12 18 14 8 9 9 2 5 6 3 13 33 36 30 23 14 19 15 14 18 20 22 23 23 22 22 23 26
37 35 34 33 35 36 32 20 21 10 7 8 8 9 9 9 9 9 4 3 10 28 42 30 15 10 10 6 7 9 9 2 5 4 7 6 29 41 35 25 21 21 18 19 18 22 26 26 27 27 25 24 23 28
34 37 36 35 31 30 23 21 19 16 9 10 9 10 11 22 25 30 32 22 17 42 52 38 23 7 4 9 7 7 6 6 7 12 12 6 42 44 36 28 30 30 28 26 24 23 26 26 28 30 30 29 28 29
36 38 42 34 25 20 18 16 21 23 9 11 15 10 18 21 24 12 15 33 39 41 48 25 8 4 6 5 6 12 10 9 7 12 54 25 41 39 33 34 32 28 25 24 23 23 23 26 29 32 33 34 34 32
34 46 38 24 19 21 21 17 16 16 14 10 13 27 39 35 33 46 38 31 45 35 6 9 10 5 6 4 4 4 5 6 32 60 16 36 40 33 37 38 31 24 21 18 17 20 22 21 23 24 31 35 35 36
44 37 28 25 21 24 29 32 12 15 17 23 13 38 40 41 43 50 55 60 48 28 18 9 13 4 7 4 2 5 13 25 49 60 19 32 29 35 39 32 25 20 19 17 13 18 21 16 19 25 25 25 25 29
36 30 27 25 27 21 13 21 25 10 23 18 32 51 51 51 59 63 64 60 54 48 26 17 10 7 7 10 8 8 9 17 38 25 28 28 33 38 31 22 25 23 21 15 14 16 19 19 18 18 19 19 22 21
31 31 29 30 30 15 14 12 15 13 11 19 38 52 38 45 59 54 50 49 48 30 15 10 10 27 31 45 47 35 20 15 20 1 18 31 35 35 29 29 26 24 22 18 16 14 22 27 30 29 29 28 24 19
30 30 28 30 32 32 12 12 16 13 13 14 31 38 23 34 42 44 51 47 25 15 11 38 48 51 48 49 46 39 33 25 32 4 5 34 39 35 30 31 26 22 17 18 21 22 24 28 30 31 31 33 32 30
27 22 16 27 20 15 19 20 13 10 13 22 25 31 20 24 46 57 61 38 25 46 52 52 52 51 51 48 43 42 37 20 25 19 14 25 46 47 42 40 32 24 20 20 19 21 26 26 29 32 33 36 37 37
28 26 19 18 19 14 13 18 16 15 9 10 17 10 11 17 20 26 13 20 26 45 57 60 59 54 52 43 35 39 36 29 35 27 27 32 47 49 44 37 27 26 26 27 21 18 24 25 25 27 29 29 32 35
30 14 8 10 20 9 9 13 15 13 13 8 7 9 9 13 13 11 8 16 45 41 44 50 47 49 44 35 36 41 35 29 31 38 36 44 45 58 48 37 33 27 22 24 25 21 21 22 21 22 22 22 24 24
6 11 9 14 14 13 12 9 12 12 11 14 10 9 7 9 6 8 7 10 21 34 30 35 44 47 49 40 34 34 31 27 28 33 40 49 54 55 59 47 39 33 32 32 31 30 24 19 17 16 14 12 12 17
8 16 17 13 8 11 10 7 10 18 12 9 9 11 12 7 8 8 5 5 2 9 8 18 23 23 30 31 31 36 38 31 36 33 34 38 53 65 61 55 54 54 49 40 37 36 32 24 20 17 15 11 7 5
9 12 22 24 22 19 10 20 25 10 10 12 7 6 6 7 7 2 5 5 2 3 6 8 9 16 25 27 26 27 31 42 42 37 32 33 39 56 54 63 58 52 42 50 46 39 34 28 23 21 18 17 10 4
16 12 10 14 19 22 8 7 8 7 4 7 10 4 3 1 4 9 11 24 26 21 19 20 22 21 19 21 22 31 27 29 37 33 30 29 28 32 42 55 52 37 41 48 43 36 40 31 25 24 23 20 16 11
13 15 12 20 17 13 15 7 6 8 10 9 5 5 5 8 27 48 38 24 25 20 20 24 28 25 22 26 28 28 34 39 37 41 45 38 33 36 39 42 44 45 33 39 43 35 35 34 28 25 22 21 16 11
12 10 8 8 6 5 7 12 15 19 23 25 13 10 12 23 7 19 9 6 11 21 25 30 25 31 39 39 38 28 20 24 30 36 41 45 38 32 32 33 37 51 48 27 24 38 51 50 42 38 35 37 37 31
15 10 9 13 10 28 38 33 32 32 32 23 21 23 13 5 10 43 32 31 34 31 35 42 48 41 43 40 32 28 23 24 31 35 30 28 30 29 32 34 37 42 40 30 31 34 44 47 47 49 43 42 42 37
10 14 8 7 12 26 24 4 5 7 12 16 17 23 25 26 28 36 36 27 35 43 48 47 45 42 34 29 23 20 25 28 27 25 16 19 30 30 26 25 26 27 28 29 28 36 44 48 45 47 46 40 39 43
11 14 10 10 9 14 19 15 10 7 9 19 20 27 26 13 8 31 38 44 53 52 50 49 49 45 39 35 34 33 30 32 32 29 23 21 22 26 28 30 28 30 31 32 32 30 30 30 32 33 32 25 30 36
Wind_Direction_850mb
290 292 296 299 301 303 304 306 308 310 312 314 315 320 323 325 323 301 284 282 272 273 275 270 272 272 272 257 265 307 327 264 315 0 218 276 215 274 310 253 251 269 200 267 255 271 277 149 332 323 288 298 297 304
289 291 295 298 299 302 305 307 309 310 311 309 307 316 321 317 320 304 293 290 289 275 268 279 275 276 269 267 268 259 243 270 280 163 241 258 283 306 214 271 263 269 203 254 204 234 258 240 276 299 279 296 304 306
289 292 294 296 300 302 304 307 309 311 311 309 306 308 310 311 312 308 292 288 294 287 289 271 267 309 283 272 263 237 246 221 225 237 214 219 246 150 237 243 244 280 197 233 345 257 249 287 303 303 295 295 313 307
287 290 293 296 298 301 305 306 307 309 310 309 303 306 308 306 304 301 302 296 287 283 275 289 288 283 286 274 246 256 241 211 269 269 232 193 213 198 229 240 238 259 163 223 256 290 293 280 285 317 319 326 318 319
286 289 291 294 298 301 304 306 306 306 306 306 301 295 300 308 307 301 299 286 275 258 287 294 294 305 325 305 267 244 231 247 245 237 208 215 220 240 251 210 261 189 205 181 261 267 246 293 315 320 330 331 322 323
283 286 288 292 297 299 301 302 303 304 303 303 298 294 298 305 306 312 308 263 304 266 277 294 295 296 319 334 289 264 254 230 202 207 216 237 242 220 273 256 252 238 242 253 262 300 304 309 313 321 332 331 329 331
281 285 289 294 296 299 302 302 301 301 302 301 300 295 296 299 294 277 250 253 293 320 269 291 286 284 319 326 302 261 223 206 198 214 231 236 229 202 248 259 258 278 285 282 261 295 314 321 321 331 336 337 336 335
283 287 291 294 297 298 299 300 302 304 302 300 301 295 295 291 279 276 287 275 268 265 247 265 277 313 339 324 315 220 200 203 207 221 223 182 190 203 244 245 258 273 248 230 263 299 308 318 320 337 346 351 349 357
285 287 290 291 295 297 298 302 303 304 301 304 301 299 301 300 261 281 286 293 278 222 243 238 277 292 327 332 315 326 221 191 198 210 205 163 197 221 233 240 233 213 218 266 282 313 332 347 343 348 353 1 359 360
283 287 290 293 295 298 301 306 308 305 307 310 308 333 275 242 299 315 296 228 222 224 233 258 261 272 305 317 301 300 203 261 222 217 158 199 243 243 253 260 233 178 183 304 305 351 357 355 351 351 354 358 1 3
284 286 289 288 290 295 302 306 310 309 320 341 306 266 279 294 298 249 247 222 206 241 234 253 248 248 257 209 228 254 275 197 278 231 181 211 258 181 149 140 137 121 76 59 50 25 9 356 348 351 0 5 11 9
282 283 285 286 284 291 297 301 305 304 296 289 300 302 294 273 237 252 227 201 212 247 214 213 241 241 249 222 234 267 238 221 243 147 203 243 275 154 151 140 129 113 99 90 60 41 26 16 14 9 10 18 22 19
278 278 278 278 282 286 292 297 299 291 294 301 246 248 229 227 232 224 211 206 225 209 202 247 261 251 222 232 243 257 240 237 90 218 215 236 149 158 153 144 132 123 113 106 79 53 47 38 34 32 31 35 37 45
276 270 271 273 280 285 290 288 292 279 247 240 246 248 223 207 239 207 248 301 309 329 324 305 247 240 238 248 239 244 251 332 250 269 242 169 159 163 158 150 143 127 116 108 92 70 59 50 43 43 45 52 59 67
271 271 273 275 280 291 284 270 247 225 235 247 237 236 235 252 280 303 308 298 332 335 333 319 290 231 252 262 254 275 288 306 345 2 347 152 169 163 159 153 142 126 113 99 80 75 72 60 57 57 55 61 70 77
271 275 270 282 284 265 262 247 219 213 236 238 234 265 275 295 288 292 307 319 333 331 318 286 273 246 260 256 316 15 4 5 323 306 305 188 176 167 159 152 141 126 115 100 81 65 71 79 69 67 69 68 74 81
265 260 271 282 270 242 246 236 208 207 233 229 239 239 255 272 272 281 296 301 318 326 293 302 316 324 269 328 316 19 275 272 290 315 272 188 182 168 158 151 144 134 125 112 91 67 56 83 88 83 77 71 72 77
250 265 270 270 257 254 241 226 227 227 232 230 234 246 248 258 271 281 284 289 298 300 298 259 270 266 253 307 299 224 236 310 334 322 202 190 174 157 154 150 154 161 142 132 101 61 47 60 94 97 90 83 81 76
263 264 259 249 245 257 221 208 214 253 232 242 245 256 259 267 273 276 280 286 286 284 277 272 251 214 233 214 250 291 212 325 343 354 178 174 158 155 153 153 152 146 136 140 123 82 72 77 80 96 101 101 99 95
257 252 255 256 249 253 208 230 207 232 232 233 245 256 253 258 273 275 275 276 278 281 229 218 216 238 255 285 300 307 293 350 335 303 149 165 160 159 157 162 158 144 130 137 139 105 94 95 92 88 86 80 74 84
264 265 248 240 245 245 248 214 216 237 252 244 258 261 259 273 267 267 268 278 240 217 241 248 259 268 280 281 289 290 297 294 349 262 146 184 179 178 172 174 172 160 143 135 128 121 111 102 99 91 88 84 77 77
244 251 246 221 223 232 239 228 223 216 231 239 254 253 257 265 271 267 268 249 238 236 236 250 259 273 276 272 267 273 273 262 281 298 241 202 198 192 185 182 179 179 167 149 134 123 118 109 99 93 93 90 83 81
240 239 239 212 205 224 252 220 206 218 219 240 241 225 241 235 243 268 230 227 230 240 244 246 257 271 268 271 276 257 259 260 219 241 197 192 199 190 188 191 185 176 168 165 158 144 134 117 109 95 93 98 90 85
228 204 220 220 208 254 226 218 220 234 227 222 230 230 249 228 244 225 243 229 246 244 236 243 256 268 260 264 249 243 248 262 221 214 217 200 199 198 198 198 197 186 165 167 179 174 159 138 127 120 104 98 97 90
209 226 208 236 225 220 223 227 213 212 234 209 215 236 255 224 233 221 222 254 248 251 260 261 253 251 253 252 236 220 226 244 217 218 210 205 205 203 202 201 206 204 198 198 198 199 187 168 152 140 124 116 106 99
219 212 204 216 227 213 220 245 222 213 213 214 247 234 229 204 221 229 224 350 6 211 246 246 245 255 228 225 224 217 209 219 217 216 217 217 209 207 206 205 208 209 212 212 211 207 204 193 176 170 167 173 186 147
248 253 221 227 240 250 257 262 247 237 206 216 210 218 220 222 231 261 80 62 342 270 247 234 210 219 214 211 207 207 222 209 211 210 216 216 206 206 214 207 210 208 208 210 214 218 208 201 190 187 185 203 206 214
241 274 251 265 261 231 243 243 243 224 263 328 326 283 275 267 262 348 326 310 297 284 257 228 213 203 205 197 181 190 198 197 205 212 216 209 195 203 207 208 205 194 205 212 207 215 214 205 190 186 192 203 208 206
247 252 257 276 280 244 216 253 313 4 4 3 334 307 325 281 281 285 275 262 269 255 219 194 187 193 205 209 204 189 184 182 181 181 185 187 191 192 196 203 207 204 187 190 208 216 218 216 210 205 199 198 210 219
253 236 252 273 262 266 264 257 271 304 288 285 248 264 273 293 333 353 31 159 154 152 167 170 167 154 136 134 132 137 162 192 201 203 203 194 186 184 188 194 187 194 192 208 214 217 219 219 218 217 216 220 219 217
267 221 235 228 254 269 292 307 288 273 270 294 303 263 280 333 312 49 80 97 109 108 122 132 138 137 136 132 126 117 112 137 166 166 157 164 173 174 170 170 181 196 210 211 210 227 219 217 221 222 218 219 220 224
236 221 222 273 285 308 331 331 330 38 26 343 359 26 30 17 30 46 68 97 114 109 109 113 121 124 126 125 120 106 118 131 145 151 159 160 165 172 177 184 189 206 215 216 218 216 213 219 224 218 215 218 227 226
272 282 278 286 305 332 347 358 36 109 46 8 3 26 31 34 23 35 66 99 104 103 103 109 112 114 116 112 111 120 120 121 126 124 129 147 161 177 186 187 178 175 176 173 169 171 179 190 202 212 215 223 239 228